Time,TemperatureF,DewpointF,PressureIn,WindDirection,WindDirectionDegrees,WindSpeedMPH,WindSpeedGustMPH,Humidity,HourlyPrecipIn,Conditions,Clouds,dailyrainin,SoftwareType,DateUTC
2013-02-16 00:00:00,39.6,29.6,30.15,SSW,196,8.0,11.0,67,0.00,,---,0.01,VWS V14.00,2013-02-16 08:00:00,
2013-02-16 00:05:00,39.6,29.6,30.15,SSW,198,6.0,8.0,67,0.00,,---,0.00,VWS V14.00,2013-02-16 08:05:00,
2013-02-16 00:10:00,39.6,29.6,30.15,South,191,7.0,8.0,67,0.00,,---,0.00,VWS V14.00,2013-02-16 08:10:00,
2013-02-16 00:15:00,39.8,29.8,30.13,SSW,198,9.0,10.0,67,0.00,,---,0.00,VWS V14.00,2013-02-16 08:15:00,
2013-02-16 00:20:00,39.9,29.9,30.13,SSW,199,7.0,14.0,67,0.00,,---,0.00,VWS V14.00,2013-02-16 08:20:00,
2013-02-16 00:25:00,39.6,29.6,30.13,South,184,7.0,10.0,67,0.00,,---,0.00,VWS V14.00,2013-02-16 08:25:00,
2013-02-16 00:30:00,39.6,29.6,30.13,SSW,206,8.0,12.0,67,0.00,,---,0.00,VWS V14.00,2013-02-16 08:30:00,
2013-02-16 00:35:00,39.3,29.3,30.13,SSW,205,9.0,11.0,67,0.00,,---,0.00,VWS V14.00,2013-02-16 08:35:00,
2013-02-16 00:40:00,39.3,29.3,30.13,South,191,14.0,14.0,67,0.00,,---,0.00,VWS V14.00,2013-02-16 08:40:00,
2013-02-16 00:45:00,39.3,29.3,30.14,SSW,195,7.0,14.0,67,0.00,,---,0.00,VWS V14.00,2013-02-16 08:45:00,
2013-02-16 00:50:00,39.3,26.2,30.14,SSW,192,11.0,11.0,59,0.00,,---,0.00,VWS V14.00,2013-02-16 08:50:00,
2013-02-16 00:56:00,39.3,26.2,30.14,SW,215,7.0,11.0,59,0.00,,---,0.00,VWS V14.00,2013-02-16 08:56:00,
2013-02-16 01:01:00,38.5,25.4,30.14,SSW,196,7.0,7.0,59,0.00,,---,0.00,VWS V14.00,2013-02-16 09:01:00,
2013-02-16 01:06:00,38.8,25.7,30.14,South,179,10.0,12.0,59,0.00,,---,0.00,VWS V14.00,2013-02-16 09:06:00,
2013-02-16 01:11:00,38.8,25.7,30.14,SSW,205,6.0,11.0,59,0.00,,---,0.00,VWS V14.00,2013-02-16 09:11:00,
2013-02-16 01:16:00,38.3,25.2,30.12,SSW,200,10.0,11.0,59,0.00,,---,0.00,VWS V14.00,2013-02-16 09:16:00,
2013-02-16 01:21:00,38.0,25.0,30.12,SW,224,11.0,13.0,59,0.00,,---,0.00,VWS V14.00,2013-02-16 09:21:00,
2013-02-16 01:26:00,38.0,25.0,30.12,SSW,208,8.0,13.0,59,0.00,,---,0.00,VWS V14.00,2013-02-16 09:26:00,
2013-02-16 01:31:00,37.0,24.0,30.13,SSW,203,9.0,9.0,59,0.00,,---,0.00,VWS V14.00,2013-02-16 09:31:00,
2013-02-16 01:36:00,36.9,23.9,30.13,SSW,196,11.0,11.0,59,0.00,,---,0.00,VWS V14.00,2013-02-16 09:36:00,
2013-02-16 01:41:00,36.9,23.9,30.13,SSW,196,11.0,11.0,59,0.00,,---,0.00,VWS V14.00,2013-02-16 09:41:00,
2013-02-16 01:46:00,36.9,23.9,30.12,SSW,205,6.0,11.0,59,0.00,,---,0.00,VWS V14.00,2013-02-16 09:46:00,
2013-02-16 01:51:00,36.9,23.9,30.12,SW,219,7.0,7.0,59,0.00,,---,0.00,VWS V14.00,2013-02-16 09:51:00,
2013-02-16 01:56:00,36.9,23.9,30.12,SSW,196,8.0,8.0,59,0.00,,---,0.00,VWS V14.00,2013-02-16 09:56:00,
2013-02-16 02:01:00,35.8,22.9,30.13,South,189,10.0,10.0,59,0.00,,---,0.00,VWS V14.00,2013-02-16 10:01:00,
2013-02-16 02:06:00,35.8,22.9,30.13,SSW,205,7.0,10.0,59,0.00,,---,0.00,VWS V14.00,2013-02-16 10:06:00,
2013-02-16 02:11:00,35.8,24.1,30.13,SSW,198,8.0,8.0,62,0.00,,---,0.00,VWS V14.00,2013-02-16 10:11:00,
2013-02-16 02:17:00,35.8,24.1,30.14,SSW,196,7.0,8.0,62,0.00,,---,0.00,VWS V14.00,2013-02-16 10:17:00,
2013-02-16 02:22:00,35.8,24.1,30.14,SSW,202,5.0,5.0,62,0.00,,---,0.00,VWS V14.00,2013-02-16 10:22:00,
2013-02-16 02:27:00,35.8,24.1,30.14,SSW,193,5.0,5.0,62,0.00,,---,0.00,VWS V14.00,2013-02-16 10:27:00,
2013-02-16 02:32:00,35.8,24.1,30.13,SSW,195,5.0,5.0,62,0.00,,---,0.00,VWS V14.00,2013-02-16 10:32:00,
2013-02-16 02:37:00,35.9,24.2,30.13,SSW,192,5.0,6.0,62,0.00,,---,0.00,VWS V14.00,2013-02-16 10:37:00,
2013-02-16 02:42:00,35.9,24.2,30.13,SSW,192,5.0,7.0,62,0.00,,---,0.00,VWS V14.00,2013-02-16 10:42:00,
2013-02-16 02:47:00,35.9,24.2,30.12,SSW,192,5.0,7.0,62,0.00,,---,0.00,VWS V14.00,2013-02-16 10:47:00,
2013-02-16 02:52:00,35.9,24.2,30.12,SSW,198,7.0,7.0,62,0.00,,---,0.00,VWS V14.00,2013-02-16 10:52:00,
2013-02-16 02:57:00,35.6,23.9,30.12,SSW,202,5.0,7.0,62,0.00,,---,0.00,VWS V14.00,2013-02-16 10:57:00,
2013-02-16 03:02:00,35.6,23.9,30.11,SW,224,5.0,5.0,62,0.00,,---,0.00,VWS V14.00,2013-02-16 11:02:00,
2013-02-16 03:07:00,37.0,25.2,30.11,SSW,208,8.0,8.0,62,0.00,,---,0.00,VWS V14.00,2013-02-16 11:07:00,
2013-02-16 03:12:00,37.0,25.2,30.11,SSW,196,6.0,7.0,62,0.00,,---,0.00,VWS V14.00,2013-02-16 11:12:00,
2013-02-16 03:17:00,37.0,25.2,30.11,SSW,196,6.0,7.0,62,0.00,,---,0.00,VWS V14.00,2013-02-16 11:17:00,
2013-02-16 03:22:00,37.0,25.2,30.11,SSW,209,5.0,6.0,62,0.00,,---,0.00,VWS V14.00,2013-02-16 11:22:00,
2013-02-16 03:28:00,37.0,25.2,30.11,SSW,209,5.0,6.0,62,0.00,,---,0.00,VWS V14.00,2013-02-16 11:28:00,
2013-02-16 03:33:00,37.0,25.2,30.11,SW,215,7.0,7.0,62,0.00,,---,0.00,VWS V14.00,2013-02-16 11:33:00,
2013-02-16 03:38:00,37.0,25.2,30.11,South,188,8.0,8.0,62,0.00,,---,0.00,VWS V14.00,2013-02-16 11:38:00,
2013-02-16 03:43:00,37.0,25.2,30.11,SSW,195,6.0,9.0,62,0.00,,---,0.00,VWS V14.00,2013-02-16 11:43:00,
2013-02-16 03:48:00,36.2,23.3,30.11,SSW,205,9.0,9.0,59,0.00,,---,0.00,VWS V14.00,2013-02-16 11:48:00,
2013-02-16 03:53:00,36.2,23.3,30.11,SSW,192,8.0,9.0,59,0.00,,---,0.00,VWS V14.00,2013-02-16 11:53:00,
2013-02-16 03:58:00,35.5,22.6,30.11,SSW,198,3.0,9.0,59,0.00,,---,0.00,VWS V14.00,2013-02-16 11:58:00,
2013-02-16 04:03:00,35.5,22.6,30.11,SSW,198,4.0,4.0,59,0.00,,---,0.00,VWS V14.00,2013-02-16 12:03:00,
2013-02-16 04:08:00,35.5,22.6,30.11,SSW,198,4.0,4.0,59,0.00,,---,0.00,VWS V14.00,2013-02-16 12:08:00,
2013-02-16 04:13:00,35.5,22.6,30.11,SSW,198,4.0,4.0,59,0.00,,---,0.00,VWS V14.00,2013-02-16 12:13:00,
2013-02-16 04:18:00,33.8,21.0,30.03,SSW,196,7.0,7.0,59,0.00,,---,0.00,VWS V14.00,2013-02-16 12:18:00,
2013-02-16 04:23:00,33.5,20.7,30.03,SSW,200,7.0,7.0,59,0.00,,---,0.00,VWS V14.00,2013-02-16 12:23:00,
2013-02-16 04:28:00,33.2,20.4,30.03,South,185,10.0,10.0,59,0.00,,---,0.00,VWS V14.00,2013-02-16 12:28:00,
2013-02-16 04:34:00,33.2,20.4,30.12,SSW,193,7.0,10.0,59,0.00,,---,0.00,VWS V14.00,2013-02-16 12:34:00,
2013-02-16 04:39:00,33.2,20.4,30.12,SSW,193,7.0,10.0,59,0.00,,---,0.00,VWS V14.00,2013-02-16 12:39:00,
2013-02-16 04:44:00,32.4,23.4,30.12,South,179,7.0,8.0,69,0.00,,---,0.00,VWS V14.00,2013-02-16 12:44:00,
2013-02-16 04:49:00,32.5,23.1,30.13,South,191,2.0,8.0,68,0.00,,---,0.00,VWS V14.00,2013-02-16 12:49:00,
2013-02-16 04:54:00,32.7,23.3,30.13,SSW,199,3.0,7.0,68,0.00,,---,0.00,VWS V14.00,2013-02-16 12:54:00,
2013-02-16 04:59:00,32.7,23.7,30.13,SSW,192,2.0,7.0,69,0.00,,---,0.00,VWS V14.00,2013-02-16 12:59:00,
2013-02-16 05:04:00,32.4,23.4,30.13,SSW,192,5.0,5.0,69,0.00,,---,0.00,VWS V14.00,2013-02-16 13:04:00,
2013-02-16 05:09:00,32.5,23.5,30.13,South,184,0.0,5.0,69,0.00,,---,0.00,VWS V14.00,2013-02-16 13:09:00,
2013-02-16 05:14:00,32.2,23.5,30.13,South,184,2.0,6.0,70,0.00,,---,0.00,VWS V14.00,2013-02-16 13:14:00,
2013-02-16 05:19:00,32.2,23.5,30.18,South,188,4.0,6.0,70,0.00,,---,0.00,VWS V14.00,2013-02-16 13:19:00,
2013-02-16 05:24:00,31.9,23.2,30.18,South,189,3.0,5.0,70,0.00,,---,0.00,VWS V14.00,2013-02-16 13:24:00,
2013-02-16 05:29:00,32.2,23.2,30.17,South,189,5.0,7.0,69,0.00,,---,0.00,VWS V14.00,2013-02-16 13:29:00,
2013-02-16 05:34:00,32.2,23.5,30.17,South,184,5.0,5.0,70,0.00,,---,0.00,VWS V14.00,2013-02-16 13:34:00,
2013-02-16 05:40:00,32.1,23.4,30.17,South,185,3.0,5.0,70,0.00,,---,0.00,VWS V14.00,2013-02-16 13:40:00,
2013-02-16 05:45:00,32.2,23.2,30.17,South,191,3.0,6.0,69,0.00,,---,0.00,VWS V14.00,2013-02-16 13:45:00,
2013-02-16 05:50:00,32.4,23.4,30.17,SSW,196,6.0,7.0,69,0.00,,---,0.00,VWS V14.00,2013-02-16 13:50:00,
2013-02-16 05:55:00,32.4,23.4,30.17,SSW,196,3.0,6.0,69,0.00,,---,0.00,VWS V14.00,2013-02-16 13:55:00,
2013-02-16 06:00:00,32.4,23.4,30.17,SSW,196,3.0,6.0,69,0.00,,---,0.00,VWS V14.00,2013-02-16 14:00:00,
2013-02-16 06:05:00,32.9,23.9,30.17,South,188,8.0,8.0,69,0.00,,---,0.00,VWS V14.00,2013-02-16 14:05:00,
2013-02-16 06:10:00,33.1,24.0,30.17,South,188,7.0,9.0,69,0.00,,---,0.00,VWS V14.00,2013-02-16 14:10:00,
2013-02-16 06:15:00,33.4,24.3,30.19,SSW,213,10.0,12.0,69,0.00,,---,0.00,VWS V14.00,2013-02-16 14:15:00,
2013-02-16 06:20:00,33.4,24.3,30.19,SSW,199,6.0,12.0,69,0.00,,---,0.00,VWS V14.00,2013-02-16 14:20:00,
2013-02-16 06:25:00,33.4,24.3,30.19,SSW,200,5.0,6.0,69,0.00,,---,0.00,VWS V14.00,2013-02-16 14:25:00,
2013-02-16 06:30:00,34.0,24.9,30.19,SSW,209,3.0,6.0,69,0.00,,---,0.00,VWS V14.00,2013-02-16 14:30:00,
2013-02-16 06:35:00,33.7,24.6,30.19,SSW,203,2.0,5.0,69,0.00,,---,0.00,VWS V14.00,2013-02-16 14:35:00,
2013-02-16 06:40:00,33.4,22.9,30.19,SSW,203,1.0,3.0,65,0.00,,---,0.00,VWS V14.00,2013-02-16 14:40:00,
2013-02-16 06:45:00,33.2,22.7,30.19,SSW,200,4.0,5.0,65,0.00,,---,0.00,VWS V14.00,2013-02-16 14:45:00,
2013-02-16 06:51:00,33.1,23.0,30.19,SSW,200,3.0,5.0,66,0.00,,---,0.00,VWS V14.00,2013-02-16 14:51:00,
2013-02-16 06:56:00,33.1,23.0,30.19,SSW,199,2.0,5.0,66,0.00,,---,0.00,VWS V14.00,2013-02-16 14:56:00,
2013-02-16 07:01:00,32.9,22.4,30.18,SSW,193,3.0,3.0,65,0.00,,---,0.00,VWS V14.00,2013-02-16 15:01:00,
2013-02-16 07:06:00,32.9,22.4,30.18,SSW,193,3.0,3.0,65,0.00,,---,0.00,VWS V14.00,2013-02-16 15:06:00,
2013-02-16 07:11:00,32.9,22.4,30.18,SSW,193,3.0,3.0,65,0.00,,---,0.00,VWS V14.00,2013-02-16 15:11:00,
2013-02-16 07:16:00,32.9,22.4,30.19,SSW,193,3.0,3.0,65,0.00,,---,0.00,VWS V14.00,2013-02-16 15:16:00,
2013-02-16 07:21:00,32.9,22.4,30.19,SSW,193,3.0,3.0,65,0.00,,---,0.00,VWS V14.00,2013-02-16 15:21:00,
2013-02-16 07:26:00,32.9,22.4,30.19,SSW,205,4.0,4.0,65,0.00,,---,0.00,VWS V14.00,2013-02-16 15:26:00,
2013-02-16 07:31:00,32.9,22.4,30.19,SSW,206,4.0,4.0,65,0.00,,---,0.00,VWS V14.00,2013-02-16 15:31:00,
2013-02-16 07:36:00,31.5,21.1,30.19,SSW,202,5.0,5.0,65,0.00,,---,0.00,VWS V14.00,2013-02-16 15:36:00,
2013-02-16 07:41:00,31.5,22.9,30.19,SSW,200,4.0,4.0,70,0.00,,---,0.00,VWS V14.00,2013-02-16 15:41:00,
2013-02-16 07:46:00,31.5,22.9,30.21,SSW,200,4.0,4.0,70,0.00,,---,0.00,VWS V14.00,2013-02-16 15:46:00,
2013-02-16 07:51:00,31.5,22.9,30.21,SSW,200,4.0,4.0,70,0.00,,---,0.00,VWS V14.00,2013-02-16 15:51:00,
2013-02-16 07:56:00,31.5,22.9,30.21,SSW,196,7.0,7.0,70,0.00,,---,0.00,VWS V14.00,2013-02-16 15:56:00,
2013-02-16 08:01:00,31.5,22.9,30.21,SSW,200,4.0,4.0,70,0.00,,---,0.00,VWS V14.00,2013-02-16 16:01:00,
2013-02-16 08:07:00,31.5,22.9,30.21,SSW,192,8.0,8.0,70,0.00,,---,0.00,VWS V14.00,2013-02-16 16:07:00,
2013-02-16 08:12:00,31.5,22.9,30.21,SSW,193,10.0,10.0,70,0.00,,---,0.00,VWS V14.00,2013-02-16 16:12:00,
2013-02-16 08:17:00,36.8,28.0,30.20,South,176,9.0,11.0,70,0.00,,---,0.00,VWS V14.00,2013-02-16 16:17:00,
2013-02-16 08:22:00,37.0,28.1,30.20,South,189,11.0,11.0,70,0.00,,---,0.00,VWS V14.00,2013-02-16 16:22:00,
2013-02-16 08:27:00,37.0,28.1,30.20,SSW,205,7.0,11.0,70,0.00,,---,0.00,VWS V14.00,2013-02-16 16:27:00,
2013-02-16 08:32:00,37.0,28.1,30.19,SSW,205,7.0,7.0,70,0.00,,---,0.00,VWS V14.00,2013-02-16 16:32:00,
2013-02-16 08:37:00,39.2,23.1,30.19,SSW,213,5.0,7.0,52,0.00,,---,0.00,VWS V14.00,2013-02-16 16:37:00,
2013-02-16 08:42:00,39.5,24.2,30.19,SSW,213,2.0,3.0,54,0.00,,---,0.00,VWS V14.00,2013-02-16 16:42:00,
2013-02-16 08:47:00,39.6,23.9,30.18,SSW,208,2.0,5.0,53,0.00,,---,0.00,VWS V14.00,2013-02-16 16:47:00,
2013-02-16 08:52:00,39.3,24.5,30.18,SSW,209,2.0,3.0,55,0.00,,---,0.00,VWS V14.00,2013-02-16 16:52:00,
2013-02-16 08:58:00,38.9,23.7,30.18,SSW,199,5.0,6.0,54,0.00,,---,0.00,VWS V14.00,2013-02-16 16:58:00,
2013-02-16 09:03:00,38.9,23.7,30.19,SSW,202,4.0,5.0,54,0.00,,---,0.00,VWS V14.00,2013-02-16 17:03:00,
2013-02-16 09:08:00,39.3,23.6,30.19,SSW,200,12.0,12.0,53,0.00,,---,0.00,VWS V14.00,2013-02-16 17:08:00,
2013-02-16 09:13:00,39.8,24.1,30.19,SW,217,8.0,8.0,53,0.00,,---,0.00,VWS V14.00,2013-02-16 17:13:00,
2013-02-16 09:18:00,41.1,23.4,30.19,SW,217,7.0,14.0,49,0.00,,---,0.00,VWS V14.00,2013-02-16 17:18:00,
2013-02-16 09:23:00,41.8,24.1,30.19,SSW,192,14.0,14.0,49,0.00,,---,0.00,VWS V14.00,2013-02-16 17:23:00,
2013-02-16 09:28:00,41.8,24.1,30.19,South,191,6.0,14.0,49,0.00,,---,0.00,VWS V14.00,2013-02-16 17:28:00,
2013-02-16 09:33:00,42.8,25.0,30.18,SSW,208,13.0,13.0,49,0.00,,---,0.00,VWS V14.00,2013-02-16 17:33:00,
2013-02-16 09:38:00,42.8,25.0,30.18,SSW,192,10.0,13.0,49,0.00,,---,0.00,VWS V14.00,2013-02-16 17:38:00,
2013-02-16 09:43:00,43.1,25.3,30.18,SSW,198,10.0,12.0,49,0.00,,---,0.00,VWS V14.00,2013-02-16 17:43:00,
2013-02-16 09:48:00,43.6,25.7,30.17,SSW,209,12.0,16.0,49,0.00,,---,0.00,VWS V14.00,2013-02-16 17:48:00,
2013-02-16 09:53:00,44.1,24.1,30.17,SSW,202,6.0,14.0,45,0.00,,---,0.00,VWS V14.00,2013-02-16 17:53:00,
2013-02-16 09:58:00,44.5,24.5,30.17,SSW,192,7.0,14.0,45,0.00,,---,0.00,VWS V14.00,2013-02-16 17:58:00,
2013-02-16 10:03:00,44.8,24.8,30.15,SSW,202,14.0,14.0,45,0.00,,---,0.00,VWS V14.00,2013-02-16 18:03:00,
2013-02-16 10:08:00,44.9,24.9,30.15,South,191,8.0,14.0,45,0.00,,---,0.00,VWS V14.00,2013-02-16 18:08:00,
2013-02-16 10:13:00,45.7,24.5,30.15,South,188,8.0,12.0,43,0.00,,---,0.00,VWS V14.00,2013-02-16 18:13:00,
2013-02-16 10:18:00,45.8,24.6,30.06,SSW,206,6.0,16.0,43,0.00,,---,0.00,VWS V14.00,2013-02-16 18:18:00,
2013-02-16 10:23:00,46.4,25.1,30.06,South,186,7.0,18.0,43,0.00,,---,0.00,VWS V14.00,2013-02-16 18:23:00,
2013-02-16 10:28:00,46.5,24.7,30.06,SSW,196,10.0,18.0,42,0.00,,---,0.00,VWS V14.00,2013-02-16 18:28:00,
2013-02-16 10:34:00,46.7,25.4,30.05,South,188,10.0,18.0,43,0.00,,---,0.00,VWS V14.00,2013-02-16 18:34:00,
2013-02-16 10:39:00,46.2,25.5,30.05,South,186,6.0,18.0,44,0.00,,---,0.00,VWS V14.00,2013-02-16 18:39:00,
2013-02-16 10:44:00,47.4,24.9,30.05,SSW,202,11.0,12.0,41,0.00,,---,0.00,VWS V14.00,2013-02-16 18:44:00,
2013-02-16 10:49:00,47.9,26.5,30.04,South,184,6.0,12.0,43,0.00,,---,0.00,VWS V14.00,2013-02-16 18:49:00,
2013-02-16 10:54:00,48.0,25.4,30.04,SSW,192,12.0,13.0,41,0.00,,---,0.00,VWS V14.00,2013-02-16 18:54:00,
2013-02-16 10:59:00,48.5,26.5,30.04,SSW,195,11.0,17.0,42,0.00,,---,0.00,VWS V14.00,2013-02-16 18:59:00,
2013-02-16 11:04:00,48.9,25.7,30.01,SSW,203,12.0,19.0,40,0.00,,---,0.00,VWS V14.00,2013-02-16 19:04:00,
2013-02-16 11:09:00,48.9,25.0,30.01,South,189,10.0,19.0,39,0.00,,---,0.00,VWS V14.00,2013-02-16 19:09:00,
2013-02-16 11:14:00,50.1,26.7,30.01,South,182,7.0,13.0,40,0.00,,---,0.00,VWS V14.00,2013-02-16 19:14:00,
2013-02-16 11:19:00,49.5,26.8,30.05,South,188,7.0,22.0,41,0.00,,---,0.00,VWS V14.00,2013-02-16 19:19:00,
2013-02-16 11:24:00,49.4,26.1,30.05,SSW,203,10.0,17.0,40,0.00,,---,0.00,VWS V14.00,2013-02-16 19:24:00,
2013-02-16 11:29:00,49.8,26.5,30.05,SSW,206,7.0,25.0,40,0.00,,---,0.00,VWS V14.00,2013-02-16 19:29:00,
2013-02-16 11:34:00,50.5,27.1,30.05,South,185,7.0,24.0,40,0.00,,---,0.00,VWS V14.00,2013-02-16 19:34:00,
2013-02-16 11:39:00,50.8,27.4,30.05,SSW,203,7.0,24.0,40,0.00,,---,0.00,VWS V14.00,2013-02-16 19:39:00,
2013-02-16 11:44:00,51.6,28.1,30.03,South,188,8.0,9.0,40,0.00,,---,0.00,VWS V14.00,2013-02-16 19:44:00,
2013-02-16 11:49:00,51.1,25.8,30.03,SSW,203,5.0,16.0,37,0.00,,---,0.00,VWS V14.00,2013-02-16 19:49:00,
2013-02-16 11:55:00,50.2,26.2,30.03,SSW,199,7.0,17.0,39,0.00,,---,0.00,VWS V14.00,2013-02-16 19:55:00,
2013-02-16 12:00:00,50.5,27.7,30.05,SSW,202,5.0,17.0,41,0.00,,---,0.00,VWS V14.00,2013-02-16 20:00:00,
2013-02-16 12:05:00,49.6,26.9,30.05,South,179,10.0,20.0,41,0.00,,---,0.00,VWS V14.00,2013-02-16 20:05:00,
2013-02-16 12:10:00,49.1,27.0,30.05,South,185,17.0,20.0,42,0.00,,---,0.00,VWS V14.00,2013-02-16 20:10:00,
2013-02-16 12:15:00,48.5,27.0,30.05,South,189,6.0,24.0,43,0.00,,---,0.00,VWS V14.00,2013-02-16 20:15:00,
2013-02-16 12:20:00,48.6,28.2,30.05,SSW,192,3.0,24.0,45,0.00,,---,0.00,VWS V14.00,2013-02-16 20:20:00,
2013-02-16 12:25:00,49.1,28.1,30.05,SSW,196,2.0,8.0,44,0.00,,---,0.00,VWS V14.00,2013-02-16 20:25:00,
2013-02-16 12:30:00,49.5,28.0,30.05,SSW,198,2.0,13.0,43,0.00,,---,0.00,VWS V14.00,2013-02-16 20:30:00,
2013-02-16 12:35:00,49.4,27.3,30.05,South,185,7.0,12.0,42,0.00,,---,0.00,VWS V14.00,2013-02-16 20:35:00,
2013-02-16 12:40:00,49.4,27.3,30.05,South,185,2.0,12.0,42,0.00,,---,0.00,VWS V14.00,2013-02-16 20:40:00,
2013-02-16 12:45:00,50.1,27.9,30.04,SSW,205,2.0,11.0,42,0.00,,---,0.00,VWS V14.00,2013-02-16 20:45:00,
2013-02-16 12:50:00,50.4,28.8,30.04,NW,316,5.0,11.0,43,0.00,,---,0.00,VWS V14.00,2013-02-16 20:50:00,
2013-02-16 12:55:00,49.9,30.0,30.04,NW,312,3.0,7.0,46,0.00,,---,0.00,VWS V14.00,2013-02-16 20:55:00,
2013-02-16 13:00:00,49.5,28.0,30.03,South,175,7.0,8.0,43,0.00,,---,0.00,VWS V14.00,2013-02-16 21:00:00,
2013-02-16 13:05:00,49.2,28.8,30.03,NW,304,4.0,12.0,45,0.00,,---,0.00,VWS V14.00,2013-02-16 21:05:00,
2013-02-16 13:10:00,50.7,29.6,30.03,NNW,330,0.0,2.0,44,0.00,,---,0.00,VWS V14.00,2013-02-16 21:10:00,
2013-02-16 13:16:00,50.7,31.2,30.05,SSW,199,3.0,10.0,47,0.00,,---,0.00,VWS V14.00,2013-02-16 21:16:00,
2013-02-16 13:21:00,49.6,29.7,30.05,SSW,213,1.0,3.0,46,0.00,,---,0.00,VWS V14.00,2013-02-16 21:21:00,
2013-02-16 13:26:00,49.9,29.4,30.05,WNW,289,1.0,7.0,45,0.00,,---,0.00,VWS V14.00,2013-02-16 21:26:00,
2013-02-16 13:31:00,49.1,28.7,30.05,WNW,299,2.0,6.0,45,0.00,,---,0.00,VWS V14.00,2013-02-16 21:31:00,
2013-02-16 13:36:00,48.3,28.5,30.05,NW,318,2.0,8.0,46,0.00,,---,0.00,VWS V14.00,2013-02-16 21:36:00,
2013-02-16 13:41:00,48.0,28.8,30.05,WNW,291,2.0,5.0,47,0.00,,---,0.00,VWS V14.00,2013-02-16 21:41:00,
2013-02-16 13:46:00,47.4,28.7,30.05,South,184,3.0,7.0,48,0.00,,---,0.00,VWS V14.00,2013-02-16 21:46:00,
2013-02-16 13:51:00,47.1,28.4,30.05,South,184,1.0,4.0,48,0.00,,---,0.00,VWS V14.00,2013-02-16 21:51:00,
2013-02-16 13:56:00,47.0,29.3,30.05,South,178,6.0,9.0,50,0.00,,---,0.00,VWS V14.00,2013-02-16 21:56:00,
2013-02-16 14:01:00,46.8,28.7,30.06,NW,322,1.0,3.0,49,0.00,,---,0.00,VWS V14.00,2013-02-16 22:01:00,
2013-02-16 14:06:00,47.0,28.3,30.06,South,191,5.0,11.0,48,0.00,,---,0.00,VWS V14.00,2013-02-16 22:06:00,
2013-02-16 14:11:00,47.9,23.5,30.06,SSW,199,2.0,6.0,38,0.00,,---,0.00,VWS V14.00,2013-02-16 22:11:00,
2013-02-16 14:16:00,48.0,23.6,30.04,South,181,10.0,14.0,38,0.00,,---,0.00,VWS V14.00,2013-02-16 22:16:00,
2013-02-16 14:21:00,47.7,24.0,30.04,South,179,5.0,14.0,39,0.00,,---,0.00,VWS V14.00,2013-02-16 22:21:00,
2013-02-16 14:26:00,47.7,22.7,30.04,SW,216,7.0,14.0,37,0.00,,---,0.00,VWS V14.00,2013-02-16 22:26:00,
2013-02-16 14:31:00,48.0,23.0,30.04,South,181,7.0,9.0,37,0.00,,---,0.00,VWS V14.00,2013-02-16 22:31:00,
2013-02-16 14:36:00,48.2,24.4,30.04,SSW,202,6.0,9.0,39,0.00,,---,0.00,VWS V14.00,2013-02-16 22:36:00,
2013-02-16 14:42:00,48.5,22.1,30.04,NNW,340,4.0,5.0,35,0.00,,---,0.00,VWS V14.00,2013-02-16 22:42:00,
2013-02-16 14:47:00,48.2,21.2,30.04,South,182,7.0,12.0,34,0.00,,---,0.00,VWS V14.00,2013-02-16 22:47:00,
2013-02-16 14:52:00,48.5,21.4,30.04,North,352,2.0,7.0,34,0.00,,---,0.00,VWS V14.00,2013-02-16 22:52:00,
2013-02-16 14:57:00,48.9,20.4,30.04,West,272,0.0,10.0,32,0.00,,---,0.00,VWS V14.00,2013-02-16 22:57:00,
2013-02-16 15:02:00,48.9,20.4,30.05,WNW,291,2.0,6.0,32,0.00,,---,0.00,VWS V14.00,2013-02-16 23:02:00,
2013-02-16 15:07:00,48.6,18.6,30.05,WNW,298,2.0,7.0,30,0.00,,---,0.00,VWS V14.00,2013-02-16 23:07:00,
2013-02-16 15:12:00,48.0,19.6,30.05,WNW,287,0.0,8.0,32,0.00,,---,0.00,VWS V14.00,2013-02-16 23:12:00,
2013-02-16 15:17:00,47.6,19.2,30.05,WNW,295,4.0,8.0,32,0.00,,---,0.00,VWS V14.00,2013-02-16 23:17:00,
2013-02-16 15:22:00,47.0,17.2,30.05,SE,143,7.0,18.0,30,0.00,,---,0.00,VWS V14.00,2013-02-16 23:22:00,
2013-02-16 15:27:00,46.8,18.5,30.05,SSW,199,2.0,18.0,32,0.00,,---,0.00,VWS V14.00,2013-02-16 23:27:00,
2013-02-16 15:32:00,46.5,18.2,30.06,WNW,288,7.0,8.0,32,0.00,,---,0.00,VWS V14.00,2013-02-16 23:32:00,
2013-02-16 15:37:00,46.4,20.9,30.06,South,184,0.0,8.0,36,0.00,,---,0.00,VWS V14.00,2013-02-16 23:37:00,
2013-02-16 15:42:00,46.1,17.9,30.06,WNW,291,0.0,5.0,32,0.00,,---,0.00,VWS V14.00,2013-02-16 23:42:00,
2013-02-16 15:48:00,45.7,19.6,30.07,SSW,198,4.0,7.0,35,0.00,,---,0.00,VWS V14.00,2013-02-16 23:48:00,
2013-02-16 15:53:00,45.2,19.9,30.07,South,178,5.0,7.0,36,0.00,,---,0.00,VWS V14.00,2013-02-16 23:53:00,
2013-02-16 15:58:00,45.1,18.4,30.07,SSW,193,6.0,11.0,34,0.00,,---,0.00,VWS V14.00,2013-02-16 23:58:00,
2013-02-16 16:03:00,44.5,18.6,30.08,WNW,288,3.0,7.0,35,0.00,,---,0.00,VWS V14.00,2013-02-17 00:03:00,
2013-02-16 16:08:00,44.1,19.5,30.08,West,264,3.0,8.0,37,0.00,,---,0.00,VWS V14.00,2013-02-17 00:08:00,
2013-02-16 16:13:00,43.9,19.3,30.08,NW,316,0.0,5.0,37,0.00,,---,0.00,VWS V14.00,2013-02-17 00:13:00,
2013-02-16 16:18:00,43.6,19.7,30.09,South,188,2.0,8.0,38,0.00,,---,0.00,VWS V14.00,2013-02-17 00:18:00,
2013-02-16 16:23:00,43.1,19.2,30.09,SSW,200,12.0,12.0,38,0.00,,---,0.00,VWS V14.00,2013-02-17 00:23:00,
2013-02-16 16:28:00,42.6,19.4,30.09,SSW,192,6.0,12.0,39,0.00,,---,0.00,VWS V14.00,2013-02-17 00:28:00,
2013-02-16 16:33:00,42.3,19.1,30.09,SW,220,7.0,10.0,39,0.00,,---,0.00,VWS V14.00,2013-02-17 00:33:00,
2013-02-16 16:38:00,41.9,19.4,30.09,SSE,164,2.0,10.0,40,0.00,,---,0.00,VWS V14.00,2013-02-17 00:38:00,
2013-02-16 16:43:00,41.5,19.0,30.09,NNW,328,0.0,7.0,40,0.00,,---,0.00,VWS V14.00,2013-02-17 00:43:00,
2013-02-16 16:48:00,41.1,18.6,30.10,South,176,5.0,7.0,40,0.00,,---,0.00,VWS V14.00,2013-02-17 00:48:00,
2013-02-16 16:53:00,40.6,19.3,30.10,South,186,6.0,8.0,42,0.00,,---,0.00,VWS V14.00,2013-02-17 00:53:00,
2013-02-16 16:58:00,40.1,19.4,30.10,SSW,193,4.0,11.0,43,0.00,,---,0.00,VWS V14.00,2013-02-17 00:58:00,
2013-02-16 17:04:00,39.8,19.1,30.11,SSW,205,7.0,17.0,43,0.00,,---,0.00,VWS V14.00,2013-02-17 01:04:00,
2013-02-16 17:09:00,39.5,18.9,30.11,SSW,199,5.0,17.0,43,0.00,,---,0.00,VWS V14.00,2013-02-17 01:09:00,
2013-02-16 17:14:00,39.2,19.7,30.11,South,185,5.0,7.0,45,0.00,,---,0.00,VWS V14.00,2013-02-17 01:14:00,
2013-02-16 17:19:00,39.2,19.7,30.12,SSW,199,7.0,7.0,45,0.00,,---,0.00,VWS V14.00,2013-02-17 01:19:00,
2013-02-16 17:24:00,38.6,19.1,30.12,South,189,5.0,13.0,45,0.00,,---,0.00,VWS V14.00,2013-02-17 01:24:00,
2013-02-16 17:29:00,38.5,19.0,30.12,SSW,193,7.0,13.0,45,0.00,,---,0.00,VWS V14.00,2013-02-17 01:29:00,
2013-02-16 17:34:00,38.0,18.6,30.12,South,186,7.0,13.0,45,0.00,,---,0.00,VWS V14.00,2013-02-17 01:34:00,
2013-02-16 17:39:00,37.9,19.5,30.12,South,179,3.0,17.0,47,0.00,,---,0.00,VWS V14.00,2013-02-17 01:39:00,
2013-02-16 17:44:00,37.6,19.2,30.12,SSW,192,4.0,5.0,47,0.00,,---,0.00,VWS V14.00,2013-02-17 01:44:00,
2013-02-16 17:49:00,37.5,19.6,30.12,South,186,1.0,6.0,48,0.00,,---,0.00,VWS V14.00,2013-02-17 01:49:00,
2013-02-16 17:54:00,37.2,20.3,30.12,South,182,6.0,7.0,50,0.00,,---,0.00,VWS V14.00,2013-02-17 01:54:00,
2013-02-16 17:59:00,36.9,20.0,30.12,South,191,5.0,8.0,50,0.00,,---,0.00,VWS V14.00,2013-02-17 01:59:00,
2013-02-16 18:04:00,36.9,20.9,30.13,SSW,199,6.0,9.0,52,0.00,,---,0.00,VWS V14.00,2013-02-17 02:04:00,
2013-02-16 18:09:00,36.3,20.4,30.13,SSW,193,4.0,9.0,52,0.00,,---,0.00,VWS V14.00,2013-02-17 02:09:00,
2013-02-16 18:14:00,35.9,20.0,30.13,SSW,203,3.0,6.0,52,0.00,,---,0.00,VWS V14.00,2013-02-17 02:14:00,
2013-02-16 18:19:00,35.6,20.6,30.13,South,188,6.0,7.0,54,0.00,,---,0.00,VWS V14.00,2013-02-17 02:19:00,
2013-02-16 18:24:00,35.3,20.3,30.13,South,189,2.0,5.0,54,0.00,,---,0.00,VWS V14.00,2013-02-17 02:24:00,
2013-02-16 18:30:00,35.3,20.3,30.13,South,189,0.0,6.0,54,0.00,,---,0.00,VWS V14.00,2013-02-17 02:30:00,
2013-02-16 18:35:00,35.5,20.5,30.13,South,189,5.0,7.0,54,0.00,,---,0.00,VWS V14.00,2013-02-17 02:35:00,
2013-02-16 18:40:00,35.3,20.8,30.13,SSW,196,5.0,7.0,55,0.00,,---,0.00,VWS V14.00,2013-02-17 02:40:00,
2013-02-16 18:45:00,35.2,21.1,30.12,SSW,198,5.0,6.0,56,0.00,,---,0.00,VWS V14.00,2013-02-17 02:45:00,
2013-02-16 18:50:00,35.6,21.5,30.12,South,191,6.0,7.0,56,0.00,,---,0.00,VWS V14.00,2013-02-17 02:50:00,
2013-02-16 18:55:00,35.8,22.1,30.12,SSW,203,2.0,7.0,57,0.00,,---,0.00,VWS V14.00,2013-02-17 02:55:00,
2013-02-16 19:00:00,35.8,21.6,30.12,SSW,196,2.0,7.0,56,0.00,,---,0.00,VWS V14.00,2013-02-17 03:00:00,
2013-02-16 19:05:00,35.6,21.9,30.12,SSW,196,0.0,2.0,57,0.00,,---,0.00,VWS V14.00,2013-02-17 03:05:00,
2013-02-16 19:10:00,35.5,22.2,30.12,SSW,196,5.0,5.0,58,0.00,,---,0.00,VWS V14.00,2013-02-17 03:10:00,
2013-02-16 19:15:00,35.8,22.5,30.12,SSW,206,4.0,8.0,58,0.00,,---,0.00,VWS V14.00,2013-02-17 03:15:00,
2013-02-16 19:20:00,35.8,22.1,30.12,SSW,196,0.0,5.0,57,0.00,,---,0.00,VWS V14.00,2013-02-17 03:20:00,
2013-02-16 19:25:00,35.8,22.1,30.12,SSW,196,5.0,5.0,57,0.00,,---,0.00,VWS V14.00,2013-02-17 03:25:00,
2013-02-16 19:30:00,35.6,22.3,30.12,South,191,5.0,5.0,58,0.00,,---,0.00,VWS V14.00,2013-02-17 03:30:00,
2013-02-16 19:36:00,35.3,22.4,30.12,South,191,0.0,5.0,59,0.00,,---,0.00,VWS V14.00,2013-02-17 03:36:00,
2013-02-16 19:41:00,34.9,22.4,30.12,South,191,1.0,1.0,60,0.00,,---,0.00,VWS V14.00,2013-02-17 03:41:00,
2013-02-16 19:46:00,34.4,22.0,30.13,South,191,3.0,3.0,60,0.00,,---,0.00,VWS V14.00,2013-02-17 03:46:00,
2013-02-16 19:51:00,34.0,22.0,30.13,South,189,0.0,0.0,61,0.00,,---,0.00,VWS V14.00,2013-02-17 03:51:00,
2013-02-16 19:56:00,33.8,21.8,30.13,South,186,2.0,5.0,61,0.00,,---,0.00,VWS V14.00,2013-02-17 03:56:00,
2013-02-16 20:01:00,33.8,21.8,30.13,SSW,193,2.0,2.0,61,0.00,,---,0.00,VWS V14.00,2013-02-17 04:01:00,
2013-02-16 20:06:00,33.5,21.9,30.13,SSW,193,2.0,5.0,62,0.00,,---,0.00,VWS V14.00,2013-02-17 04:06:00,
2013-02-16 20:11:00,33.2,22.4,30.13,SSW,195,0.0,0.0,64,0.00,,---,0.00,VWS V14.00,2013-02-17 04:11:00,
2013-02-16 20:16:00,32.9,22.4,30.10,SSW,193,0.0,5.0,65,0.00,,---,0.00,VWS V14.00,2013-02-17 04:16:00,
2013-02-16 20:21:00,33.1,22.6,30.10,SSW,195,2.0,2.0,65,0.00,,---,0.00,VWS V14.00,2013-02-17 04:21:00,
2013-02-16 20:26:00,33.1,22.3,30.10,SSW,196,2.0,5.0,64,0.00,,---,0.00,VWS V14.00,2013-02-17 04:26:00,
2013-02-16 20:31:00,32.9,22.8,30.10,SSW,198,3.0,3.0,66,0.00,,---,0.00,VWS V14.00,2013-02-17 04:31:00,
2013-02-16 20:36:00,33.1,23.4,30.10,SSW,196,10.0,13.0,67,0.00,,---,0.00,VWS V14.00,2013-02-17 04:36:00,
2013-02-16 20:41:00,33.1,23.4,30.10,South,185,5.0,6.0,67,0.00,,---,0.00,VWS V14.00,2013-02-17 04:41:00,
2013-02-16 20:46:00,32.8,23.1,30.10,SSW,193,16.0,16.0,67,0.00,,---,0.00,VWS V14.00,2013-02-17 04:46:00,
2013-02-16 20:51:00,32.8,23.1,30.10,South,188,10.0,10.0,67,0.00,,---,0.00,VWS V14.00,2013-02-17 04:51:00,
2013-02-16 20:57:00,32.8,23.1,30.10,SSW,195,13.0,13.0,67,0.00,,---,0.00,VWS V14.00,2013-02-17 04:57:00,
2013-02-16 21:00:00,32.7,23.7,30.10,SSW,208,12.0,13.0,69,0.00,,---,0.00,VWS V14.00,2013-02-17 05:00:00,
2013-02-16 21:01:00,32.7,23.7,30.10,South,188,10.0,10.0,69,0.00,,---,0.00,VWS V14.00,2013-02-17 05:01:00,
2013-02-16 21:02:00,32.7,23.0,30.10,SSW,205,11.0,14.0,67,0.00,,---,0.00,VWS V14.00,2013-02-17 05:02:00,
2013-02-16 21:07:00,32.8,23.4,30.10,South,185,8.0,14.0,68,0.00,,---,0.00,VWS V14.00,2013-02-17 05:07:00,
2013-02-16 21:12:00,32.8,23.4,30.10,South,185,8.0,8.0,68,0.00,,---,0.00,VWS V14.00,2013-02-17 05:12:00,
2013-02-16 21:17:00,32.8,23.4,30.08,South,186,6.0,8.0,68,0.00,,---,0.00,VWS V14.00,2013-02-17 05:17:00,
2013-02-16 21:22:00,32.5,22.4,30.08,SSW,192,2.0,3.0,66,0.00,,---,0.00,VWS V14.00,2013-02-17 05:22:00,
2013-02-16 21:27:00,32.5,22.8,30.08,South,189,0.0,6.0,67,0.00,,---,0.00,VWS V14.00,2013-02-17 05:27:00,
2013-02-16 21:32:00,31.8,22.1,30.09,South,189,0.0,2.0,67,0.00,,---,0.00,VWS V14.00,2013-02-17 05:32:00,
2013-02-16 21:37:00,31.2,21.9,30.09,South,189,0.0,2.0,68,0.00,,---,0.00,VWS V14.00,2013-02-17 05:37:00,
2013-02-16 21:42:00,30.7,22.1,30.09,South,189,0.0,0.0,70,0.00,,---,0.00,VWS V14.00,2013-02-17 05:42:00,
2013-02-16 21:47:00,30.1,21.5,30.09,South,189,2.0,5.0,70,0.00,,---,0.00,VWS V14.00,2013-02-17 05:47:00,
2013-02-16 21:52:00,29.3,21.4,30.09,South,189,0.0,0.0,72,0.00,,---,0.00,VWS V14.00,2013-02-17 05:52:00,
2013-02-16 21:57:00,28.8,20.6,30.09,South,189,1.0,1.0,71,0.00,,---,0.00,VWS V14.00,2013-02-17 05:57:00,
2013-02-16 22:02:00,28.5,20.6,30.10,South,189,0.0,0.0,72,0.00,,---,0.00,VWS V14.00,2013-02-17 06:02:00,
2013-02-16 22:07:00,28.2,20.7,30.10,South,189,1.0,1.0,73,0.00,,---,0.00,VWS V14.00,2013-02-17 06:07:00,
2013-02-16 22:13:00,27.2,20.0,30.10,South,189,2.0,5.0,74,0.00,,---,0.00,VWS V14.00,2013-02-17 06:13:00,
2013-02-16 22:18:00,26.9,20.4,30.10,South,189,0.0,5.0,76,0.00,,---,0.00,VWS V14.00,2013-02-17 06:18:00,
2013-02-16 22:23:00,26.4,19.9,30.10,South,189,1.0,3.0,76,0.00,,---,0.00,VWS V14.00,2013-02-17 06:23:00,
2013-02-16 22:28:00,26.1,19.6,30.10,South,189,0.0,3.0,76,0.00,,---,0.00,VWS V14.00,2013-02-17 06:28:00,
2013-02-16 22:33:00,25.8,19.0,30.10,South,189,0.0,0.0,75,0.00,,---,0.00,VWS V14.00,2013-02-17 06:33:00,
2013-02-16 22:38:00,25.6,19.1,30.10,South,189,0.0,0.0,76,0.00,,---,0.00,VWS V14.00,2013-02-17 06:38:00,
2013-02-16 22:43:00,25.4,18.9,30.10,South,189,0.0,0.0,76,0.00,,---,0.00,VWS V14.00,2013-02-17 06:43:00,
2013-02-16 22:48:00,25.4,18.9,30.10,South,189,0.0,1.0,76,0.00,,---,0.00,VWS V14.00,2013-02-17 06:48:00,
2013-02-16 22:53:00,25.6,18.5,30.10,South,189,0.0,1.0,74,0.00,,---,0.00,VWS V14.00,2013-02-17 06:53:00,
2013-02-16 22:58:00,27.3,17.5,30.10,South,189,3.0,5.0,66,0.00,,---,0.00,VWS V14.00,2013-02-17 06:58:00,
2013-02-16 23:03:00,28.7,18.8,30.08,South,182,8.0,8.0,66,0.00,,---,0.00,VWS V14.00,2013-02-17 07:03:00,
2013-02-16 23:08:00,30.0,18.2,30.08,South,181,0.0,8.0,61,0.00,,---,0.00,VWS V14.00,2013-02-17 07:08:00,
2013-02-16 23:13:00,28.4,18.5,30.08,SSE,152,1.0,3.0,66,0.00,,---,0.00,VWS V14.00,2013-02-17 07:13:00,
2013-02-16 23:18:00,27.5,18.7,30.08,SSE,152,0.0,3.0,69,0.00,,---,0.00,VWS V14.00,2013-02-17 07:18:00,
2013-02-16 23:23:00,26.9,18.4,30.08,SSE,152,0.0,0.0,70,0.00,,---,0.00,VWS V14.00,2013-02-17 07:23:00,
2013-02-16 23:28:00,26.6,18.5,30.08,SSE,152,0.0,0.0,71,0.00,,---,0.00,VWS V14.00,2013-02-17 07:28:00,
2013-02-16 23:34:00,26.4,18.0,30.08,SSE,152,0.0,2.0,70,0.00,,---,0.00,VWS V14.00,2013-02-17 07:34:00,
2013-02-16 23:39:00,26.3,17.9,30.08,SSE,152,0.0,2.0,70,0.00,,---,0.00,VWS V14.00,2013-02-17 07:39:00,
2013-02-16 23:44:00,26.1,17.7,30.08,SSE,152,1.0,2.0,70,0.00,,---,0.00,VWS V14.00,2013-02-17 07:44:00,
2013-02-16 23:49:00,26.0,17.2,30.09,SSE,152,1.0,2.0,69,0.00,,---,0.00,VWS V14.00,2013-02-17 07:49:00,
2013-02-16 23:54:00,26.0,17.2,30.09,SSE,152,0.0,2.0,69,0.00,,---,0.00,VWS V14.00,2013-02-17 07:54:00,
2013-02-16 23:59:00,25.6,17.2,30.09,SSE,152,0.0,3.0,70,0.00,,---,0.00,VWS V14.00,2013-02-17 07:59:00,